Hourly Weather Kaczkow

Today, 27 February, Saturday

Time Temperature Precipitation Wind Pressure Humidity
00:00 +2°C° 0 mm 5 mps 754 mmHg 85%
01:00 +2°C° 0 mm 5 mps 755 mmHg 86%
02:00 +2°C° 0 mm 6 mps 755 mmHg 87%
03:00 +1°C° 0 mm 6 mps 754 mmHg 88%
04:00 +1°C° 0 mm 6 mps 754 mmHg 90%
05:00 +1°C° 0 mm 6 mps 755 mmHg 90%
06:00 +1°C° 0 mm 6 mps 755 mmHg 90%
07:00 -1°C° 0 mm 6 mps 755 mmHg 90%
08:00 +1°C° 0 mm 6 mps 756 mmHg 88%
09:00 +1°C° 0 mm 6 mps 756 mmHg 86%
10:00 +2°C° 0 mm 6 mps 756 mmHg 84%
11:00 +3°C° 0 mm 6 mps 757 mmHg 79%
12:00 +3°C° 0 mm 6 mps 757 mmHg 74%
13:00 +4°C° 0 mm 6 mps 757 mmHg 69%
14:00 +4°C° 0 mm 6 mps 757 mmHg 68%
15:00 +4°C° 0 mm 6 mps 757 mmHg 67%
16:00 +4°C° 0 mm 6 mps 758 mmHg 66%
17:00 +3°C° 0 mm 5 mps 758 mmHg 70%
18:00 +3°C° 0 mm 4 mps 758 mmHg 74%
19:00 +1°C° 0 mm 4 mps 758 mmHg 79%
20:00 +1°C° 0 mm 3 mps 759 mmHg 81%
21:00 +1°C° 0 mm 3 mps 759 mmHg 84%
22:00 0°C° 0 mm 3 mps 759 mmHg 87%
23:00 0°C° 0 mm 3 mps 759 mmHg 88%

Tomorrow, 28 February, Sunday

Time Temperature Precipitation Wind Pressure Humidity
00:00 -1°C° 0 mm 3 mps 760 mmHg 89%
01:00 -1°C° 0 mm 3 mps 760 mmHg 91%
02:00 -1°C° 0 mm 3 mps 759 mmHg 89%
03:00 -1°C° 0 mm 3 mps 759 mmHg 88%
04:00 -1°C° 0 mm 3 mps 759 mmHg 86%
05:00 -1°C° 0 mm 3 mps 759 mmHg 86%
06:00 -2°C° 0 mm 4 mps 759 mmHg 85%
07:00 -2°C° 0 mm 4 mps 760 mmHg 85%
08:00 0°C° 0 mm 4 mps 759 mmHg 80%
09:00 +1°C° 0 mm 4 mps 759 mmHg 76%
10:00 +3°C° 0 mm 4 mps 759 mmHg 72%
11:00 +2°C° 0 mm 5 mps 759 mmHg 74%
12:00 +3°C° 0 mm 5 mps 759 mmHg 75%
13:00 +3°C° 0 mm 6 mps 759 mmHg 77%
14:00 +3°C° 0 mm 6 mps 758 mmHg 81%
15:00 +2°C° 0 mm 6 mps 758 mmHg 85%
16:00 +1°C° 0 mm 6 mps 757 mmHg 89%
17:00 +1°C° 0 mm 5 mps 758 mmHg 89%
18:00 +1°C° 0 mm 5 mps 758 mmHg 89%
19:00 +1°C° 0 mm 4 mps 758 mmHg 89%
20:00 0°C° 0 mm 4 mps 758 mmHg 91%
21:00 0°C° 0 mm 4 mps 759 mmHg 93%
22:00 -1°C° 0 mm 4 mps 759 mmHg 94%
23:00 -1°C° 0 mm 4 mps 759 mmHg 94%

Day after tomorrow, 1 March, Monday

Time Temperature Precipitation Wind Pressure Humidity
00:00 0°C° 0 mm 3 mps 759 mmHg 95%
01:00 -1°C° 0 mm 3 mps 760 mmHg 95%
02:00 -1°C° 0 mm 3 mps 760 mmHg 94%
03:00 -1°C° 0 mm 2 mps 760 mmHg 94%
04:00 -1°C° 0 mm 2 mps 760 mmHg 94%
05:00 -1°C° 0 mm 2 mps 760 mmHg 94%
06:00 -1°C° 0 mm 2 mps 760 mmHg 94%
07:00 -1°C° 0 mm 2 mps 761 mmHg 94%
08:00 +2°C° 0 mm 2 mps 761 mmHg 87%
09:00 +3°C° 0 mm 2 mps 761 mmHg 80%
10:00 +5°C° 0 mm 2 mps 761 mmHg 74%
11:00 +6°C° 0 mm 2 mps 761 mmHg 70%
12:00 +7°C° 0 mm 3 mps 761 mmHg 66%
13:00 +8°C° 0 mm 3 mps 761 mmHg 63%
14:00 +8°C° 0 mm 3 mps 761 mmHg 64%
15:00 +8°C° 0 mm 3 mps 760 mmHg 64%
16:00 +8°C° 0 mm 3 mps 760 mmHg 65%
17:00 +7°C° 0 mm 3 mps 760 mmHg 70%
18:00 +5°C° 0 mm 3 mps 760 mmHg 74%
19:00 +3°C° 0 mm 3 mps 761 mmHg 79%
20:00 +3°C° 0 mm 3 mps 761 mmHg 80%
21:00 +3°C° 0 mm 3 mps 760 mmHg 82%
22:00 +2°C° 0 mm 3 mps 760 mmHg 83%
23:00 +2°C° 0 mm 3 mps 760 mmHg 85%

2 March, Tuesday

Time Temperature Precipitation Wind Pressure Humidity
00:00 +2°C° 0 mm 3 mps 760 mmHg 87%
01:00 +2°C° 0 mm 3 mps 760 mmHg 88%
02:00 +1°C° 0 mm 3 mps 760 mmHg 88%
03:00 0°C° 0 mm 4 mps 760 mmHg 89%
04:00 0°C° 0 mm 4 mps 759 mmHg 89%
05:00 0°C° 0 mm 4 mps 760 mmHg 89%
06:00 0°C° 0 mm 4 mps 760 mmHg 89%
07:00 0°C° 0 mm 3 mps 760 mmHg 89%
08:00 +1°C° 0 mm 4 mps 760 mmHg 83%
09:00 +4°C° 0 mm 4 mps 760 mmHg 77%
10:00 +5°C° 0 mm 5 mps 760 mmHg 71%
11:00 +7°C° 0 mm 5 mps 760 mmHg 67%
12:00 +8°C° 0 mm 5 mps 760 mmHg 63%
13:00 +9°C° 0 mm 5 mps 759 mmHg 59%
14:00 +10°C° 0 mm 4 mps 759 mmHg 60%
15:00 +10°C° 0 mm 4 mps 759 mmHg 61%
16:00 +10°C° 0 mm 4 mps 759 mmHg 62%
17:00 +8°C° 0 mm 3 mps 759 mmHg 68%
18:00 +7°C° 0 mm 3 mps 759 mmHg 74%
19:00 +6°C° 0 mm 2 mps 759 mmHg 80%
20:00 +5°C° 0 mm 2 mps 759 mmHg 82%
21:00 +5°C° 0 mm 2 mps 759 mmHg 84%
22:00 +4°C° 0 mm 2 mps 759 mmHg 86%
23:00 +5°C° 0 mm 1 mps 759 mmHg 87%

3 March, Wednesday

Time Temperature Precipitation Wind Pressure Humidity
00:00 +4°C° 0 mm 1 mps 759 mmHg 87%
01:00 +4°C° 0 mm 1 mps 759 mmHg 88%
02:00 +3°C° 0 mm 1 mps 759 mmHg 88%
03:00 +2°C° 0 mm 0 mps 759 mmHg 88%
04:00 +2°C° 0 mm 0 mps 758 mmHg 88%
05:00 +2°C° 0 mm 0 mps 758 mmHg 88%
06:00 +2°C° 0 mm 0 mps 758 mmHg 88%
07:00 +2°C° 0 mm 0 mps 758 mmHg 88%
08:00 +5°C° 0 mm 1 mps 758 mmHg 82%
09:00 +6°C° 0 mm 1 mps 758 mmHg 75%
10:00 +8°C° 0 mm 1 mps 758 mmHg 69%
11:00 +9°C° 0 mm 1 mps 758 mmHg 64%
12:00 +10°C° 0 mm 1 mps 758 mmHg 60%
13:00 +11°C° 0 mm 1 mps 757 mmHg 55%
14:00 +11°C° 0 mm 1 mps 757 mmHg 56%
15:00 +11°C° 0 mm 1 mps 757 mmHg 57%
16:00 +11°C° 0 mm 1 mps 756 mmHg 58%
17:00 +9°C° 0 mm 0 mps 756 mmHg 62%
18:00 +7°C° 0 mm 0 mps 756 mmHg 66%
19:00 +6°C° 0 mm 0 mps 755 mmHg 70%
20:00 +5°C° 0 mm 0 mps 755 mmHg 72%
21:00 +6°C° 0 mm 1 mps 755 mmHg 74%
22:00 +6°C° 0 mm 1 mps 755 mmHg 75%
23:00 +5°C° 0 mm 1 mps 754 mmHg 78%

4 March, Thursday

Time Temperature Precipitation Wind Pressure Humidity
00:00 +4°C° 0 mm 2 mps 754 mmHg 80%
01:00 +3°C° 0 mm 2 mps 753 mmHg 82%
02:00 +3°C° 0 mm 2 mps 753 mmHg 83%
03:00 +2°C° 0 mm 2 mps 752 mmHg 85%
04:00 +2°C° 0 mm 2 mps 752 mmHg 86%
05:00 +1°C° 0 mm 3 mps 752 mmHg 87%
06:00 +1°C° 0 mm 3 mps 751 mmHg 89%
07:00 +1°C° 0 mm 3 mps 751 mmHg 90%
08:00 +2°C° 0 mm 3 mps 750 mmHg 85%
09:00 +4°C° 0 mm 4 mps 750 mmHg 81%
10:00 +6°C° 0 mm 4 mps 749 mmHg 76%
11:00 +7°C° 0 mm 4 mps 749 mmHg 73%
12:00 +8°C° 0 mm 4 mps 748 mmHg 69%
13:00 +8°C° 0 mm 4 mps 748 mmHg 65%
14:00 +8°C° 0 mm 4 mps 747 mmHg 66%
15:00 +8°C° 0 mm 4 mps 747 mmHg 68%
16:00 +9°C° 0 mm 3 mps 746 mmHg 69%
17:00 +8°C° 0.3 mm 3 mps 746 mmHg 76%
18:00 +7°C° 0.3 mm 3 mps 746 mmHg 83%
19:00 +5°C° 0.3 mm 3 mps 745 mmHg 90%
20:00 +5°C° 0.4 mm 3 mps 745 mmHg 91%
21:00 +5°C° 0.4 mm 4 mps 745 mmHg 92%
22:00 +5°C° 0.4 mm 4 mps 745 mmHg 93%
23:00 +3°C° 0.4 mm 5 mps 746 mmHg 93%
Show more

We Need Your Consent

Meteoprog and our Service Providers may store and access personal data such as cookies, device identifiers or other similar technologies on your device and process such data to personalise content and ads, as well as provide social media features and to analyse the traffic.

  • Store and/or access information on your device

    Cookies, device identifiers or other information can be stored or accessed on your device for the purposes indicated above.

  • Personalised ads and content, ad and content measurement, audience insights, and products development

    Ads and content can be personalised based on a profile. More data can be added to better personalise ads and content. Ad and content performance can be measured. Insights about the audience who saw the ads and content can be derived. Such data can be used to develop or improve user’s experience, systems and software.

By clicking ‘I Agree’ you will allow the use of indicated cookies, device identifiers, web beacons or other similar technologies. Your settings can be changed in the browser on your device.

For certain purposes, legitimate interests may be relied on, rather than consent. You can read more about this in our Privacy and Cookie Policy.